Regional Weather Roundup
Issued by NWS

Home | Current Version | Previous Version | Graphics & Text | Print | Product List | Glossary On
Versions: 1 2 3 4 5 6 7 8 9 10 11 12 13 14 15 16 17 18 19 20 21 22 23 24 25 26 27 28 29 30 31 32 33 34 35 36 37 38 39 40 41 42 43 44 45 46 47 48 49 50
000
ASUS45 KABQ 021310
RWRNM
NEW MEXICO REGIONAL WEATHER ROUNDUP
NATIONAL WEATHER SERVICE ALBUQUERQUE NM
700 AM MDT THU JUL 02 2015

NOTE: "FAIR" MEANS FEW OR NO CLOUDS BELOW 12,000 FEET AGL WITH NO
       SIGNIFICANT WEATHER OR OBSTRUCTIONS TO VISION.

      THIS PRODUCT IS RELEASED AS TWO VERSIONS.  ONE VERSION NEAR
      THE TOP OF THE HOUR CONTAINING PRELIMINARY DATA FROM ALBUQUERQUE
      AND OTHER STATIONS.  A FINAL VERSION WITH ADDITIONAL DATA IS
      ISSUED ABOUT 10 MINUTES AFTER THE HOUR.

NMZ501-503-504-510>518-021400-
NORTHWEST PLATEAU/NORTHCENTRAL MOUNTAINS

CITY           SKY/WX    TMP DP  RH WIND       PRES   REMARKS
FARMINGTON     SUNNY     70  55  59 NE8       30.17R
SANTA FE       PTSUNNY   62  56  80 N12       30.23S
TAOS           CLOUDY    57  46  67 CALM      30.32S

$$
NMZ402-403-502-505>509-021400-
WESTCENTRAL MOUNTAINS/SOUTHWEST MOUNTAINS

CITY           SKY/WX    TMP DP  RH WIND       PRES   REMARKS
GALLUP         MOCLDY    60  54  80 E3        30.27R
SILVER CITY      N/A     70  55  60 NW14      30.15R

$$
NMZ407-409-411-412-021400-
SOUTHERN DESERTS

CITY           SKY/WX    TMP DP  RH WIND       PRES   REMARKS
DEMING         CLEAR     72  56  57 SW7       30.05R
HOLLOMAN AFB   MOSUNNY   72  48  42 N9        30.02R
ALAMOGORDO     MOSUNNY   68  46  45 NE8       30.05R
T OR C         PTCLDY    75  54  47 N8        30.08R

$$
NMZ519>523-021400-
CENTRAL VALLEYS/CENTRAL HIGHLANDS

CITY           SKY/WX    TMP DP  RH WIND       PRES   REMARKS
ALBUQUERQUE    PTSUNNY   73  54  51 N10       30.16R
DOUBLE EAGLE   PTSUNNY   70  54  56 N13       30.20R
CLINES CORNERS PTSUNNY   63  54  72 SE5       30.25S
BELEN          PTSUNNY   73  52  46 N3        30.14R
SOCORRO        NOT AVBL

$$
NMZ524>526-539-540-021400-
SOUTHCENTRAL MOUNTAINS

CITY           SKY/WX    TMP DP  RH WIND       PRES   REMARKS
RUIDOSO        PTSUNNY   63  50  63 W8        30.27R

$$
NMZ527>531-021400-
NORTHEAST HIGHLANDS/NORTHEAST PLAINS

CITY           SKY/WX    TMP DP  RH WIND       PRES   REMARKS
LAS VEGAS      CLOUDY    59  56  89 NE6       30.25S
RATON          CLOUDY    59  57  93 NE3       30.20F
CLAYTON        CLOUDY    66  60  81 SW3       30.10S

$$
NMZ532>537-021400-
EASTCENTRAL PLAINS

CITY           SKY/WX    TMP DP  RH WIND       PRES   REMARKS
TUCUMCARI      CLOUDY    71  63  75 CALM      30.05R
CANNON AFB     SUNNY     69  61  74 N8        30.07R
CLOVIS AIRPORT CLOUDY    70  59  68 N7          N/A

$$
NMZ028-029-538-021400-
SOUTHEAST PLAINS

CITY           SKY/WX    TMP DP  RH WIND       PRES   REMARKS
ROSWELL        MOSUNNY   69  61  75 E6        30.05R
ARTESIA        PTSUNNY   70  64  83 NE6       30.05S
CARLSBAD       PTSUNNY   69  63  81 CALM      30.02R
HOBBS          PTSUNNY   66  66 100 SE6       30.06R


$$



USA.gov is the U.S. government's official web portal to all federal, state and local government web resources and services.